GW1675 Weather Reports


time (UTC)temp
C
wind
direction
speed
KPH
gust
KPH
rain 1hr
cm
rain 24hr
cm
rain mn
cm
humidity
%
barometer
mb
20260506160046 21 172 12.9 27.4 0.00 0.00 0.00 67 1011.3
20260506154606 20 174 11.3 25.7 0.00 0.00 0.00 66 1011.5
20260506153046 20 178 14.5 27.4 0.00 0.00 0.00 66 1011.7
20260506151546 19 181 20.9 33.8 0.00 0.00 0.00 66 1012.0
20260506150047 20 180 17.7 32.2 0.00 0.00 0.00 65 1012.2
20260506144551 20 181 16.1 29.0 0.00 0.00 0.00 65 1012.5
20260506143044 19 181 17.7 30.6 0.00 0.00 0.00 65 1012.5
20260506141549 20 169 14.5 29.0 0.00 0.00 0.00 65 1013.0
20260506140048 20 161 17.7 27.4 0.00 0.00 0.00 65 1013.2
20260506134544 20 160 11.3 27.4 0.00 0.00 0.00 65 1013.3
20260506133056 21 153 8.0 22.5 0.00 0.00 0.00 66 1013.4
20260506131545 20 149 11.3 22.5 0.00 0.00 0.00 66 1013.6
20260506130046 20 146 12.9 20.9 0.00 0.00 0.00 66 1013.6
20260506124545 20 141 8.0 20.9 0.00 0.00 0.00 67 1014.0
20260506123047 20 131 9.7 19.3 0.00 0.00 0.00 67 1014.0
20260506121545 20 129 12.9 22.5 0.00 0.00 0.00 67 1014.3
20260506120044 20 127 11.3 22.5 0.00 0.00 0.00 67 1014.4
20260506114548 20 106 9.7 20.9 0.00 0.00 0.00 67 1014.5
20260506113042 19 106 14.5 20.9 0.00 0.00 0.00 67 1014.6
20260506111549 19 105 11.3 20.9 0.00 0.00 0.00 68 1014.8
20260506110047 19 105 12.9 20.9 0.00 0.00 0.00 68 1014.9
20260506104608 19 105 8.0 19.3 0.00 0.00 0.00 68 1014.9
20260506103044 18 105 11.3 17.7 0.00 0.00 0.00 68 1015.0
20260506101548 18 105 8.0 16.1 0.00 0.00 0.00 68 1014.9
20260506100046 20 105 1.6 12.9 0.00 0.00 0.00 69 1014.9
20260506094540 18 105 4.8 17.7 0.00 0.00 0.00 69 1014.9
20260506093045 18 105 6.4 11.3 0.00 0.00 0.00 70 1014.7
20260506091544 18 105 4.8 19.3 0.00 0.00 0.00 70 1014.8
20260506090047 17 105 3.2 14.5 0.00 0.00 0.00 70 1014.9
20260506084544 17 105 3.2 14.5 0.00 0.00 0.00 70 1014.9
20260506083047 17 105 3.2 14.5 0.00 0.00 0.00 70 1014.9
20260506081557 16 105 6.4 12.9 0.00 0.00 0.00 70 1014.9
20260506073048 15 105 6.4 19.3 0.00 0.00 0.00 70 1015.1
20260506071545 14 105 9.7 20.9 0.00 0.00 0.00 70 1015.0
20260506061552 13 105 11.3 17.7 0.00 0.00 0.00 70 1014.9
20260506044554 12 105 9.7 17.7 0.00 0.00 0.00 68 1014.7
20260506043053 13 105 11.3 17.7 0.00 0.00 0.00 68 1014.7
20260506041546 13 105 11.3 19.3 0.00 0.00 0.00 68 1015.0
20260506040053 13 105 9.7 19.3 0.00 0.00 0.00 68 1014.9
20260506034552 13 105 12.9 20.9 0.00 0.00 0.00 68 1014.9
20260506033045 13 105 11.3 20.9 0.00 0.00 0.00 68 1015.0
20260506031547 13 105 11.3 20.9 0.00 0.00 0.00 68 1015.0
20260506030052 13 105 11.3 20.9 0.00 0.00 0.00 68 1015.2
20260506024547 13 105 9.7 20.9 0.00 0.00 0.00 68 1015.2
20260506023050 14 105 8.0 14.5 0.00 0.00 0.00 68 1015.2
20260506021556 14 105 12.9 20.9 0.00 0.00 0.00 67 1015.4
20260506020044 14 105 9.7 20.9 0.00 0.00 0.00 67 1015.5
20260506014543 14 105 11.3 19.3 0.00 0.00 0.00 67 1015.6
20260506011550 14 104 9.7 24.1 0.00 0.00 0.00 67 1015.8
20260506010055 15 104 12.9 25.7 0.00 0.00 0.00 67 1015.9
20260506004545 15 104 11.3 29.0 0.00 0.00 0.00 67 1016.0
20260506003059 15 100 11.3 24.1 0.00 0.00 0.00 66 1016.2
20260506001544 15 100 8.0 22.5 0.00 0.00 0.00 66 1016.3
20260506000046 15 98 17.7 27.4 0.00 0.00 0.00 66 1016.5
20260505234606 15 97 12.9 30.6 0.00 0.00 0.00 66 1016.5
20260505233042 15 94 14.5 27.4 0.00 0.00 0.00 66 1016.6
20260505231549 15 91 12.9 29.0 0.00 0.00 0.00 65 1016.6
20260505230047 15 91 12.9 22.5 0.00 0.00 0.00 65 1016.7
20260505224545 16 89 12.9 30.6 0.00 0.00 0.00 64 1016.7
20260505223102 16 88 17.7 30.6 0.00 0.00 0.00 64 1016.6
20260505221545 16 91 16.1 25.7 0.00 0.00 0.00 64 1016.7
20260505220047 16 89 14.5 27.4 0.00 0.00 0.00 63 1016.8
20260505214552 16 87 17.7 27.4 0.00 0.00 0.00 63 1016.8
20260505213045 16 88 12.9 27.4 0.00 0.00 0.00 62 1017.0
20260505211552 16 89 14.5 24.1 0.00 0.00 0.00 62 1017.0
20260505210045 16 88 16.1 29.0 0.00 0.00 0.00 62 1017.0
20260505204543 17 91 14.5 25.7 0.00 0.00 0.00 61 1016.7
20260505203051 17 94 11.3 22.5 0.00 0.00 0.00 61 1016.7
20260505201548 17 96 12.9 27.4 0.00 0.00 0.00 60 1016.5
20260505200045 17 101 12.9 24.1 0.00 0.00 0.00 60 1016.5
20260505194545 18 105 12.9 25.7 0.00 0.00 0.00 60 1016.3
20260505193043 18 105 11.3 22.5 0.00 0.00 0.00 59 1016.1
20260505191547 19 106 9.7 19.3 0.00 0.00 0.00 59 1015.8
20260505190044 20 108 8.0 19.3 0.00 0.00 0.00 59 1015.7
20260505184550 20 108 6.4 20.9 0.00 0.00 0.00 59 1015.7
20260505183048 20 109 6.4 16.1 0.00 0.00 0.00 60 1015.7
20260505181541 21 109 16.1 24.1 0.00 0.00 0.00 60 1015.7
20260505180056 21 108 12.9 20.9 0.00 0.00 0.00 60 1015.6
20260505174549 21 111 14.5 27.4 0.00 0.00 0.00 60 1015.5
20260505173044 21 108 16.1 25.7 0.00 0.00 0.00 60 1015.5
20260505171544 22 104 11.3 24.1 0.00 0.00 0.00 61 1015.6
20260505170044 22 113 17.7 29.0 0.00 0.00 0.00 61 1015.6
20260505164545 22 103 14.5 25.7 0.00 0.00 0.00 62 1015.6
20260505163049 22 100 12.9 27.4 0.00 0.00 0.00 62 1015.6
20260505161544 22 113 9.7 19.3 0.00 0.00 0.00 63 1015.7